Location: Eastlake (historical)
(39.0077°N, 122.6678°W)
Time: 18:12:33
(UTC+00:00)

ATLAS 3B R/B - Pass Details

Date: 25 November 2020
Orbit: 1013 x 1182 km, 63.8° (Epoch: 08 January)

Event Time Altitude Azimuth Distance (km) Brightness Sun altitude
Exits shadow 13:41:36 - 335° (NNW) 3,299 4.9 -16.0°
Reaches altitude 10° 13:42:45 10° 339° (NNW) 2,920 4.7 -15.8°
Maximum altitude 13:49:18 42° 49° (NE) 1,527 3.8 -14.6°
Drops below altitude 10° 13:56:04 10° 119° (ESE) 3,024 6.4 -13.3°
Sets 13:58:59 0° 126° (SE) 4,003 7.2 -12.8°
